This demonstration page uses our WeatherBlox Daily Observations layout. Learn more.

Left ArrowRight Arrow

41.55636, -103.73856

Hourly Observations for January 9, 2015

Temp ( °F °C ) Dew Point ( °F °C ) Humidity (%) Winds ( mph kmh ) Pressure ( in mb ) Visibility ( mi km ) Precip ( " mm )
12:53 am 00:53 Clear 11 -11.7 2 -16.7 67 67 NW 21 33 30.58 1035 10 16 0.00 0.00
1:53 am 01:53 Clear 10 -12.2 0 -17.8 63 63 NW 21 33 30.58 1036 10 16 0.00 0.00
2:53 am 02:53 Clear 2 -16.7 -3 -19.4 80 80 NNW 8 13 30.63 1037 10 16 0.00 0.00
3:53 am 03:53 Clear 3 -16.1 -3 -19.4 76 76 WNW 13 20 30.61 1037 10 16 0.00 0.00
4:53 am 04:53 Clear 1 -17.2 -6 -21.1 72 72 Calm 30.61 1037 10 16 0.00 0.00
5:53 am 05:53 Clear -3 -19.4 -8 -22.2 79 79 NNW 9 15 30.62 1037 10 16 0.00 0.00
6:53 am 06:53 Clear 1 -17.2 -6 -21.1 72 72 NNW 5 7 30.63 1037 10 16 0.00 0.00
7:53 am 07:53 Sunny -1 -18.3 -6 -21.1 79 79 NNW 3 6 30.65 1038 10 16 0.00 0.00
8:53 am 08:53 Sunny 1 -17.2 -5 -20.6 75 75 W 6 9 30.66 1038 10 16 0.00 0.00
9:53 am 09:53 Sunny 6 -14.4 -2 -18.9 69 69 NW 6 9 30.64 1038 10 16 0.00 0.03
10:53 am 10:53 Sunny 12 -11.1 -2 -18.9 53 53 WNW 7 11 30.59 1036 10 16 0.00 0.00
11:53 am 11:53 Sunny 17 -8.3 -2 -18.9 43 43 Calm 30.53 1034 10 16 0.00 0.00
12:53 pm 12:53 Sunny 16 -8.9 -2 -18.9 45 45 ENE 3 6 30.48 1032 10 16 0.00 0.00
1:53 pm 13:53 Sunny 16 -8.9 0 -17.8 49 49 ESE 5 7 30.45 1031 10 16 0.00 0.00
2:53 pm 14:53 Sunny 16 -8.9 3 -16.1 56 56 ESE 7 11 30.45 1031 10 16 0.00 0.00
3:53 pm 15:53 Sunny 14 -10 3 -16.1 61 61 ESE 7 11 30.43 1031 10 16 0.00 0.00
4:53 pm 16:53 Clear 10 -12.2 0 -17.8 63 63 E 8 13 30.42 1030 10 16 0.00 0.00
5:53 pm 17:53 Clear with Light Snow 8 -13.3 -1 -18.3 66 66 E 8 13 30.42 1030 10 16 0.00 0.03
6:53 pm 18:53 Clear 7 -13.9 -1 -18.3 70 70 ESE 9 15 30.38 1029 10 16 0.00 0.03
7:53 pm 19:53 Clear 8 -13.3 4 -15.6 83 83 ESE 9 15 30.35 1028 10 16 0.00 0.00
8:53 pm 20:53 Clear 11 -11.7 7 -13.9 84 84 ESE 13 20 30.31 1026 10 16 0.00 0.00
9:53 pm 21:53 Clear 10 -12.2 5 -15 80 80 E 9 15 30.26 1025 10 16 0.00 0.00
10:53 pm 22:53 Clear 10 -12.2 5 -15 80 80 E 9 15 30.21 1023 10 16 0.00 0.00
11:53 pm 23:53 Clear 10 -12.2 5 -15 80 80 E 7 11 30.15 1021 10 16 0.00 0.00

Powered by AerisWeather